Voltar ao catálogo

STARLINK-32278

AtivoComunicaçõesVLEO
NORAD 60356·PAYLOAD·🇺🇸 United States

Lançado Aug 4, 2024 de Vandenberg Space Force Base

Loading…

Próximas Passagens (próximas 24 horas)

TLE

AtualizadoSource: CelesTrak SupGP

Época: Sep 14, 2026, 21:11 UTC

1 60356C 24138B   26257.88312500 -.00063478  00000+0 -18749-2 0  2574
2 60356  53.1580 149.6263 0001301  91.0607 163.7949 15.34431229    17

Acompanhe STARLINK-32278 em tempo real com AllMySat

Download on the App Store